Location: Newark
(7.0858°N, 171.3717°E)
Time: 15:44:25
(UTC+00:00)

Courier 1B Rocket - Pass Details

Date: 01 December 2020
Orbit: 920 x 1202 km, 28.2° (Epoch: 20 January)

Event Time Altitude Azimuth Distance (km) Brightness Sun altitude
Rises 14:04:37 0° 243° (WSW) 3,847 - -61.5°
Reaches altitude 10° 14:07:16 10° 244° (WSW) 2,932 - -61.0°
Maximum altitude 14:14:34 81° 330° (NNW) 1,158 - -59.4°
Drops below altitude 10° 14:22:19 10° 58° (ENE) 3,100 - -57.8°
Sets 14:25:12 0° 59° (ENE) 4,080 - -57.2°
